GSAT0210 (PRN E01)

Last updated on Sat Apr 13 2024 01:03:08 GMT+0100 (British Summer Time)

1 41550U 16030B 24103.09184996 -.00000006 00000+0 00000+0 0 9996 2 41550 55.3978 243.5948 0000870 312.5454 47.3976 1.70473872 49095
UTC large
Height (km)
Speed (km/s)
/
Latitude / Longitude
Inclination (degrees)
Orbital Period (minutes)
Azimuth
Elevation
Range (km)
Doppler Factor

Next 0 passes for location: London (51.5072 / 0.1276)

Sorry there are no passes over London.